Tracking 17842 objects as of 30-August-2016
HD Live streaming from Space Station
objects crossing your sky now

DELTA 1 R/B

Track DELTA 1 R/B now!
10-day predictions


NORAD ID: 2661
Int'l Code: 1967-006B
Perigee: 1,347.6 km
Apogee: 1,447.5 km
Inclination: 101.9 °
Period: 113.6 minutes
Semi major axis: 7768 km
RCS: 0.6811 m2 (medium)
Launch date: January 26, 1967
Source: United States (US)
Launch site: AIR FORCE WESTERN TEST RANGE (AFWTR)

Note: This is a ROCKET BODY
Your satellite tracking list
Your tracking list is empty





NASA's NSSDC Master Catalog

Two Line Element Set (TLE):
1 02661U 67006B   16243.19870332 -.00000048  00000-0  17696-5 0  9990
2 02661 101.9303 137.0530 0064302 228.7158 254.5790 12.67921447295114
Source of the keplerian elements: AFSPC

N2YO: 953